• In Czech Republic
  • List of Countries
  • For 7 days
  • Water Temperature
  • Satellite Maps
  • Weather Map
  • Weather Widgets
  • user-avatar
    Login

    Hourly Weather Escaldes-Engordany

    Today, 24 October, Wednesday

    Time Temperature Precipitation Wind Pressure Humidity
    00:00 +5°C° 0 mm 3 mps 644 mmHg 45%
    01:00 +5°C° 0 mm 3 mps 644 mmHg 44%
    02:00 +5°C° 0 mm 3 mps 644 mmHg 42%
    03:00 +5°C° 0 mm 3 mps 644 mmHg 41%
    04:00 +5°C° 0 mm 3 mps 644 mmHg 40%
    05:00 +5°C° 0 mm 3 mps 644 mmHg 39%
    06:00 +5°C° 0 mm 3 mps 644 mmHg 38%
    07:00 +8°C° 0 mm 3 mps 644 mmHg 37%
    08:00 +10°C° 0 mm 3 mps 645 mmHg 36%
    09:00 +13°C° 0 mm 3 mps 646 mmHg 35%
    10:00 +14°C° 0 mm 3 mps 646 mmHg 35%
    11:00 +16°C° 0 mm 3 mps 646 mmHg 35%
    12:00 +18°C° 0 mm 3 mps 646 mmHg 35%
    13:00 +17°C° 0 mm 3 mps 646 mmHg 38%
    14:00 +17°C° 0 mm 3 mps 645 mmHg 41%
    15:00 +17°C° 0 mm 3 mps 645 mmHg 44%
    16:00 +13°C° 0 mm 3 mps 644 mmHg 50%
    17:00 +11°C° 0 mm 3 mps 643 mmHg 57%
    18:00 +9°C° 0 mm 3 mps 642 mmHg 63%
    19:00 +8°C° 0 mm 3 mps 642 mmHg 62%
    20:00 +8°C° 0 mm 3 mps 642 mmHg 62%
    21:00 +8°C° 0 mm 3 mps 642 mmHg 61%
    22:00 +8°C° 0 mm 3 mps 642 mmHg 62%
    23:00 +8°C° 0 mm 3 mps 642 mmHg 62%

    Tomorrow, 25 October, Thursday

    Time Temperature Precipitation Wind Pressure Humidity
    00:00 +8°C° 0 mm 2 mps 642 mmHg 62%
    01:00 +8°C° 0 mm 2 mps 641 mmHg 62%
    02:00 +7°C° 0 mm 2 mps 641 mmHg 63%
    03:00 +7°C° 0 mm 2 mps 641 mmHg 63%
    04:00 +7°C° 0 mm 2 mps 641 mmHg 62%
    05:00 +7°C° 0 mm 2 mps 641 mmHg 62%
    06:00 +7°C° 0 mm 2 mps 641 mmHg 61%
    07:00 +9°C° 0 mm 2 mps 641 mmHg 56%
    08:00 +13°C° 0 mm 1 mps 642 mmHg 50%
    09:00 +15°C° 0 mm 1 mps 643 mmHg 45%
    10:00 +16°C° 0 mm 1 mps 644 mmHg 42%
    11:00 +18°C° 0 mm 1 mps 644 mmHg 39%
    12:00 +20°C° 0 mm 1 mps 644 mmHg 36%
    13:00 +19°C° 0 mm 1 mps 643 mmHg 39%
    14:00 +19°C° 0 mm 1 mps 643 mmHg 42%
    15:00 +18°C° 0 mm 1 mps 642 mmHg 46%
    16:00 +15°C° 0 mm 1 mps 641 mmHg 55%
    17:00 +12°C° 0 mm 1 mps 641 mmHg 64%
    18:00 +10°C° 0 mm 1 mps 640 mmHg 73%
    19:00 +10°C° 0 mm 1 mps 640 mmHg 73%
    20:00 +10°C° 0 mm 1 mps 640 mmHg 73%
    21:00 +9°C° 0 mm 1 mps 640 mmHg 72%
    22:00 +9°C° 0 mm 1 mps 639 mmHg 72%
    23:00 +9°C° 0 mm 1 mps 639 mmHg 72%

    Day after tomorrow, 26 October, Friday

    Time Temperature Precipitation Wind Pressure Humidity
    00:00 +9°C° 0 mm 1 mps 639 mmHg 72%
    01:00 +9°C° 0 mm 1 mps 639 mmHg 71%
    02:00 +8°C° 0 mm 1 mps 638 mmHg 70%
    03:00 +8°C° 0 mm 1 mps 638 mmHg 68%
    04:00 +8°C° 0 mm 1 mps 638 mmHg 66%
    05:00 +8°C° 0 mm 1 mps 638 mmHg 64%
    06:00 +8°C° 0 mm 1 mps 638 mmHg 62%
    07:00 +10°C° 0 mm 1 mps 638 mmHg 56%
    08:00 +12°C° 0 mm 1 mps 639 mmHg 50%
    09:00 +13°C° 0 mm 0 mps 640 mmHg 44%
    10:00 +15°C° 0 mm 1 mps 640 mmHg 43%
    11:00 +16°C° 0 mm 1 mps 640 mmHg 41%
    12:00 +17°C° 0 mm 2 mps 640 mmHg 40%
    13:00 +16°C° 0 mm 2 mps 640 mmHg 43%
    14:00 +16°C° 0 mm 2 mps 639 mmHg 47%
    15:00 +15°C° 0 mm 2 mps 638 mmHg 50%
    16:00 +13°C° 0 mm 1 mps 638 mmHg 60%
    17:00 +11°C° 0 mm 1 mps 637 mmHg 70%
    18:00 +9°C° 0 mm 1 mps 636 mmHg 79%
    19:00 +9°C° 0 mm 1 mps 636 mmHg 80%
    20:00 +9°C° 0 mm 1 mps 637 mmHg 80%
    21:00 +9°C° 0 mm 1 mps 637 mmHg 81%
    22:00 +9°C° 0.1 mm 1 mps 636 mmHg 82%
    23:00 +9°C° 0.1 mm 1 mps 636 mmHg 83%

    27 October, Saturday

    Time Temperature Precipitation Wind Pressure Humidity
    00:00 +9°C° 0.1 mm 1 mps 636 mmHg 85%
    01:00 +8°C° 0.3 mm 1 mps 635 mmHg 87%
    02:00 +8°C° 0.3 mm 1 mps 635 mmHg 88%
    03:00 +7°C° 0.3 mm 1 mps 635 mmHg 90%
    04:00 +6°C° 0.7 mm 2 mps 634 mmHg 91%
    05:00 +5°C° 0.7 mm 2 mps 634 mmHg 92%
    06:00 +4°C° 0.7 mm 3 mps 634 mmHg 93%
    07:00 +3°C° 1.3 mm 3 mps 634 mmHg 92%
    08:00 +3°C° 1.3 mm 3 mps 634 mmHg 91%
    09:00 +2°C° 1.3 mm 3 mps 634 mmHg 90%
    10:00 +2°C° 1.6 mm 3 mps 633 mmHg 90%
    11:00 +1°C° 1.6 mm 3 mps 633 mmHg 89%
    12:00 +1°C° 1.6 mm 3 mps 632 mmHg 89%
    13:00 0°C° 1.7 mm 3 mps 632 mmHg 88%
    14:00 0°C° 1.7 mm 3 mps 631 mmHg 88%
    15:00 -1°C° 1.7 mm 3 mps 631 mmHg 87%
    16:00 -3°C° 0.6 mm 4 mps 631 mmHg 85%
    17:00 -3°C° 0.6 mm 4 mps 630 mmHg 83%
    18:00 -4°C° 0.6 mm 4 mps 630 mmHg 82%
    19:00 -4°C° 0.3 mm 4 mps 630 mmHg 82%
    20:00 -4°C° 0.3 mm 4 mps 630 mmHg 82%
    21:00 -4°C° 0.3 mm 4 mps 629 mmHg 82%
    22:00 -5°C° 0.1 mm 4 mps 629 mmHg 83%
    23:00 -5°C° 0.1 mm 4 mps 629 mmHg 83%

    28 October, Sunday

    Time Temperature Precipitation Wind Pressure Humidity
    00:00 -5°C° 0.1 mm 4 mps 628 mmHg 83%
    01:00 -5°C° 0.1 mm 4 mps 628 mmHg 84%
    02:00 -7°C° 0.1 mm 4 mps 627 mmHg 84%
    03:00 -7°C° 0.1 mm 4 mps 627 mmHg 84%
    04:00 -7°C° 0.1 mm 4 mps 627 mmHg 84%
    05:00 -8°C° 0.1 mm 4 mps 627 mmHg 85%
    06:00 -8°C° 0.1 mm 4 mps 627 mmHg 85%
    07:00 -7°C° 0.2 mm 4 mps 627 mmHg 81%
    08:00 -7°C° 0.2 mm 4 mps 627 mmHg 78%
    09:00 -5°C° 0.2 mm 4 mps 627 mmHg 74%
    10:00 -4°C° 0.1 mm 4 mps 627 mmHg 71%
    11:00 -4°C° 0.1 mm 4 mps 627 mmHg 68%
    12:00 -3°C° 0.1 mm 4 mps 627 mmHg 65%
    13:00 -3°C° 0.1 mm 4 mps 626 mmHg 66%
    14:00 -3°C° 0.1 mm 4 mps 626 mmHg 67%
    15:00 -4°C° 0.1 mm 3 mps 626 mmHg 68%
    16:00 -4°C° 0.6 mm 3 mps 626 mmHg 72%
    17:00 -5°C° 0.6 mm 3 mps 626 mmHg 77%
    18:00 -6°C° 0.6 mm 3 mps 625 mmHg 81%
    19:00 -6°C° 0.7 mm 3 mps 625 mmHg 82%
    20:00 -7°C° 0.7 mm 4 mps 625 mmHg 83%
    21:00 -7°C° 0.7 mm 4 mps 625 mmHg 84%
    22:00 -7°C° 0.3 mm 4 mps 625 mmHg 84%
    23:00 -7°C° 0.3 mm 3 mps 625 mmHg 84%

    29 October, Monday

    Time Temperature Precipitation Wind Pressure Humidity
    00:00 -7°C° 0.3 mm 3 mps 625 mmHg 84%
    01:00 -7°C° 0.1 mm 3 mps 625 mmHg 84%
    02:00 -7°C° 0.1 mm 3 mps 625 mmHg 84%
    03:00 -7°C° 0.1 mm 3 mps 624 mmHg 84%
    04:00 -7°C° 0.2 mm 3 mps 625 mmHg 84%
    05:00 -7°C° 0.2 mm 3 mps 625 mmHg 84%
    06:00 -7°C° 0.2 mm 3 mps 625 mmHg 84%
    07:00 -7°C° 0.1 mm 4 mps 626 mmHg 81%
    08:00 -4°C° 0.1 mm 4 mps 626 mmHg 79%
    09:00 -3°C° 0.1 mm 4 mps 627 mmHg 76%
    10:00 -3°C° 0 mm 4 mps 627 mmHg 75%
    11:00 -2°C° 0 mm 4 mps 628 mmHg 74%
    12:00 -2°C° 0 mm 4 mps 628 mmHg 73%
    13:00 -2°C° 0.1 mm 4 mps 628 mmHg 74%
    14:00 -2°C° 0.1 mm 4 mps 628 mmHg 74%
    15:00 -3°C° 0.1 mm 4 mps 628 mmHg 74%
    16:00 -4°C° 0 mm 4 mps 628 mmHg 76%
    17:00 -5°C° 0 mm 4 mps 628 mmHg 77%
    18:00 -8°C° 0 mm 4 mps 628 mmHg 79%
    19:00 -9°C° 0 mm 4 mps 628 mmHg 79%
    20:00 -8°C° 0 mm 3 mps 628 mmHg 78%
    21:00 -9°C° 0 mm 3 mps 628 mmHg 78%
    22:00 -9°C° 0 mm 3 mps 628 mmHg 76%
    23:00 -10°C° 0 mm 3 mps 628 mmHg 75%

    30 October, Tuesday

    Time Temperature Precipitation Wind Pressure Humidity
    00:00 -10°C° 0 mm 3 mps 627 mmHg 73%
    01:00 -10°C° 0 mm 3 mps 627 mmHg 72%
    02:00 -10°C° 0 mm 3 mps 627 mmHg 71%
    03:00 -8°C° 0 mm 2 mps 627 mmHg 69%
    04:00 -8°C° 0 mm 2 mps 628 mmHg 70%
    05:00 -8°C° 0 mm 2 mps 628 mmHg 71%
    06:00 -7°C° 0 mm 2 mps 628 mmHg 72%
    07:00 -3°C° 0 mm 1 mps 629 mmHg 70%
    08:00 0°C° 0 mm 1 mps 630 mmHg 68%
    09:00 +2°C° 0 mm 1 mps 630 mmHg 66%
    10:00 +3°C° 0 mm 1 mps 631 mmHg 68%
    11:00 +4°C° 0 mm 1 mps 631 mmHg 70%
    12:00 +4°C° 0 mm 2 mps 631 mmHg 72%
    13:00 +4°C° 0 mm 2 mps 631 mmHg 74%
    14:00 +4°C° 0 mm 2 mps 631 mmHg 75%
    15:00 +3°C° 0 mm 2 mps 630 mmHg 77%
    16:00 +3°C° 0 mm 1 mps 630 mmHg 80%
    17:00 +1°C° 0 mm 1 mps 630 mmHg 83%
    18:00 0°C° 0 mm 1 mps 629 mmHg 86%
    19:00 0°C° 0 mm 1 mps 629 mmHg 85%
    20:00 -1°C° 0 mm 1 mps 629 mmHg 84%
    21:00 -1°C° 0 mm 1 mps 630 mmHg 84%
    22:00 -1°C° 0.1 mm 1 mps 629 mmHg 84%
    23:00 -1°C° 0.1 mm 1 mps 629 mmHg 84%
    Show more